Mora, MN

9:06 AM CST on January 22, 2018 (GMT -0600)
Mora Municipal

Weather History for KJMR - October, 2014

Change the Weather History Date:

Sunday, October 12, 2014

  Actual Average Record
Temperature  
Mean Temperature 47 °F -  
Max Temperature 59 °F 60 °F 80 °F (1956)
Min Temperature 35 °F 32 °F 14 °F (1987)
Degree Days  
Heating Degree Days 18    
Moisture  
Dew Point 34 °F    
Average Humidity 63    
Maximum Humidity 81    
Minimum Humidity 39    
Precipitation  
Precipitation 0.00 in - - ()
Sea Level Pressure  
Sea Level Pressure 29.84 in    
Wind  
Wind Speed 7 mph (SSE)    
Max Wind Speed 17 mph    
Max Gust Speed 26 mph    
Visibility 10 miles    
Events      
Averages and records for this station are not official NWS values.
T = Trace of Precipitation, MM = Missing Value Source: NWS Daily Summary

Daily Weather History Graph

Daily Weather History Graph

Search for Another Location

Airport or City:

Trip Planner

Search our weather history database for the weather conditions in past years. The results will help you decide how hot, cold, wet, or windy it might be!

Date:

Astronomy

Oct. 12, 2014 Rise Set
Actual Time 7:25 AM CDT 6:32 PM CDT
Civil Twilight 6:55 AM CDT 7:02 PM CDT
Nautical Twilight 6:21 AM CDT 7:36 PM CDT
Astronomical Twilight 5:46 AM CDT 8:11 PM CDT
Moon 9:40 PM CDT (10/12) 11:58 AM CDT (10/12)
Length of Visible Light 12h 06m
Length of Day
11h 06m
Waning Gibbous, 79% of the Moon is Illuminated
Oct 12
Waning Gibbous
Oct 15
Last Quarter
Oct 23
New
Oct 30
First Quarter
Nov 6
Full

Hourly Weather History & Observations

Time (CDT) Temp. Windchill Dew Point Humidity Pressure Visibility Wind Dir Wind Speed Gust Speed Precip Events Conditions
12:14 AM 37.4 °F 33.8 °F 30.2 °F 75% 29.97 in 10.0 mi SSE 4.6 mph - N/A   Clear
12:34 AM 37.4 °F 33.8 °F 30.2 °F 75% 29.96 in 10.0 mi SSE 4.6 mph - N/A   Clear
12:54 AM 37.4 °F 33.8 °F 30.2 °F 75% 29.96 in 10.0 mi SSE 4.6 mph - N/A   Clear
1:14 AM 37.4 °F 34.9 °F 30.2 °F 75% 29.95 in 10.0 mi SSE 3.5 mph - N/A   Clear
1:34 AM 37.4 °F - 30.2 °F 75% 29.95 in 10.0 mi Calm Calm - N/A   Clear
1:54 AM 35.6 °F 32.8 °F 30.2 °F 81% 29.94 in 10.0 mi SSE 3.5 mph - N/A   Clear
2:14 AM 35.6 °F 32.8 °F 30.2 °F 81% 29.94 in 10.0 mi SSE 3.5 mph - N/A   Clear
2:34 AM 35.6 °F 32.8 °F 30.2 °F 81% 29.93 in 10.0 mi SSE 3.5 mph - N/A   Clear
2:54 AM 37.4 °F 34.9 °F 30.2 °F 75% 29.92 in 10.0 mi SSE 3.5 mph - N/A   Clear
3:14 AM 37.4 °F 33.8 °F 32.0 °F 81% 29.92 in 10.0 mi SSE 4.6 mph - N/A   Clear
3:34 AM 37.4 °F 33.8 °F 32.0 °F 81% 29.91 in 10.0 mi SSE 4.6 mph - N/A   Clear
3:54 AM 37.4 °F 33.8 °F 32.0 °F 81% 29.91 in 10.0 mi SSE 4.6 mph - N/A   Clear
4:14 AM 37.4 °F 33.8 °F 32.0 °F 81% 29.91 in 10.0 mi SSE 4.6 mph - N/A   Clear
4:34 AM 37.4 °F 34.9 °F 32.0 °F 81% 29.90 in 10.0 mi SSE 3.5 mph - N/A   Clear
4:54 AM 37.4 °F 33.8 °F 32.0 °F 81% 29.90 in 10.0 mi SSE 4.6 mph - N/A   Clear
5:14 AM 37.4 °F 33.8 °F 32.0 °F 81% 29.89 in 10.0 mi South 4.6 mph - N/A   Clear
5:34 AM 37.4 °F 32.1 °F 32.0 °F 81% 29.89 in 10.0 mi SSE 6.9 mph - N/A   Clear
5:54 AM 37.4 °F 32.1 °F 32.0 °F 81% 29.89 in 10.0 mi South 6.9 mph - N/A   Clear
6:14 AM 37.4 °F 32.8 °F 32.0 °F 81% 29.89 in 10.0 mi SSE 5.8 mph - N/A   Clear
6:34 AM 37.4 °F 33.8 °F 32.0 °F 81% 29.88 in 10.0 mi SSE 4.6 mph - N/A   Clear
6:54 AM 37.4 °F 32.8 °F 32.0 °F 81% 29.88 in 10.0 mi SSE 5.8 mph - N/A   Clear
7:14 AM 37.4 °F 33.8 °F 32.0 °F 81% 29.87 in 10.0 mi SSE 4.6 mph - N/A   Clear
7:34 AM 37.4 °F 32.8 °F 32.0 °F 81% 29.87 in 10.0 mi SSE 5.8 mph - N/A   Clear
7:54 AM 37.4 °F 32.1 °F 32.0 °F 81% 29.87 in 10.0 mi South 6.9 mph - N/A   Clear
8:14 AM 37.4 °F 32.1 °F 32.0 °F 81% 29.87 in 10.0 mi South 6.9 mph - N/A   Clear
8:34 AM 39.2 °F 33.6 °F 33.8 °F 81% 29.87 in 10.0 mi South 8.1 mph - N/A   Clear
8:54 AM 42.8 °F 38.0 °F 33.8 °F 70% 29.87 in 10.0 mi South 8.1 mph - N/A   Clear
9:14 AM 44.6 °F 38.8 °F 35.6 °F 71% 29.87 in 10.0 mi South 11.5 mph 16.1 mph N/A   Clear
9:34 AM 44.6 °F 38.4 °F 35.6 °F 71% 29.86 in 10.0 mi South 12.7 mph 17.3 mph N/A   Clear
9:54 AM 48.2 °F - 35.6 °F 62% 29.86 in 10.0 mi South 12.7 mph 17.3 mph N/A   Clear
10:14 AM 50.0 °F - 37.4 °F 62% 29.86 in 10.0 mi South 16.1 mph 20.7 mph N/A   Clear
10:34 AM 50.0 °F - 35.6 °F 58% 29.85 in 10.0 mi South 15.0 mph 20.7 mph N/A   Clear
10:54 AM 51.8 °F - 35.6 °F 54% 29.85 in 10.0 mi South 17.3 mph 24.2 mph N/A   Clear
11:14 AM 53.6 °F - 37.4 °F 54% 29.85 in 10.0 mi South 16.1 mph 26.5 mph N/A   Clear
11:34 AM 53.6 °F - 35.6 °F 51% 29.84 in 10.0 mi South 16.1 mph 24.2 mph N/A   Clear
11:54 AM 53.6 °F - 35.6 °F 51% 29.84 in 10.0 mi South 15.0 mph 21.9 mph N/A   Clear
12:14 PM 55.4 °F - 35.6 °F 47% 29.83 in 10.0 mi South 10.4 mph 20.7 mph N/A   Clear
12:34 PM 55.4 °F - 35.6 °F 47% 29.82 in 10.0 mi South 15.0 mph 19.6 mph N/A   Clear
12:54 PM 55.4 °F - 35.6 °F 47% 29.82 in 10.0 mi SSE 12.7 mph 20.7 mph N/A   Clear
1:14 PM 55.4 °F - 35.6 °F 47% 29.81 in 10.0 mi SSE 11.5 mph 18.4 mph N/A   Clear
1:34 PM 55.4 °F - 35.6 °F 47% 29.80 in 10.0 mi South 15.0 mph 19.6 mph N/A   Clear
1:54 PM 55.4 °F - 35.6 °F 47% 29.79 in 10.0 mi SSE 12.7 mph 20.7 mph N/A   Clear
2:14 PM 57.2 °F - 35.6 °F 44% 29.79 in 10.0 mi SSE 11.5 mph 21.9 mph N/A   Clear
2:34 PM 59.0 °F - 35.6 °F 42% 29.79 in 10.0 mi SSE 13.8 mph 23.0 mph N/A   Clear
2:54 PM 59.0 °F - 35.6 °F 42% 29.78 in 10.0 mi SSE 11.5 mph 20.7 mph N/A   Clear
3:14 PM 59.0 °F - 33.8 °F 39% 29.77 in 10.0 mi South 11.5 mph 19.6 mph N/A   Clear
3:34 PM 59.0 °F - 33.8 °F 39% 29.77 in 10.0 mi SSE 12.7 mph 19.6 mph N/A   Clear
3:54 PM 59.0 °F - 33.8 °F 39% 29.76 in 10.0 mi SSE 16.1 mph 23.0 mph N/A   Clear
4:14 PM 59.0 °F - 33.8 °F 39% 29.76 in 10.0 mi SSE 15.0 mph 20.7 mph N/A   Clear
4:34 PM 59.0 °F - 33.8 °F 39% 29.75 in 10.0 mi South 15.0 mph - N/A   Clear
4:54 PM 59.0 °F - 33.8 °F 39% 29.75 in 10.0 mi SSE 10.4 mph 17.3 mph N/A   Clear
5:14 PM 55.4 °F - 32.0 °F 41% 29.76 in 10.0 mi South 15.0 mph 23.0 mph N/A   Clear
5:34 PM 55.4 °F - 32.0 °F 41% 29.77 in 10.0 mi SSE 12.7 mph 17.3 mph N/A   Clear
5:54 PM 55.4 °F - 33.8 °F 44% 29.78 in 10.0 mi SSE 5.8 mph - N/A   Clear
6:14 PM 53.6 °F - 32.0 °F 44% 29.78 in 10.0 mi SSE 12.7 mph 19.6 mph N/A   Clear
6:34 PM 53.6 °F - 32.0 °F 44% 29.79 in 10.0 mi SSE 9.2 mph 17.3 mph N/A   Clear
6:54 PM 50.0 °F - 32.0 °F 50% 29.79 in 10.0 mi SSE 4.6 mph - N/A   Clear
7:14 PM 50.0 °F - 32.0 °F 50% 29.80 in 10.0 mi SE 3.5 mph - N/A   Clear
7:34 PM 48.2 °F - 32.0 °F 54% 29.80 in 10.0 mi SSE 3.5 mph - N/A   Clear
7:54 PM 44.6 °F - 32.0 °F 61% 29.81 in 10.0 mi Calm Calm - N/A   Clear
8:14 PM 44.6 °F - 33.8 °F 66% 29.81 in 10.0 mi Calm Calm - N/A   Scattered Clouds
8:34 PM 44.6 °F - 33.8 °F 66% 29.81 in 10.0 mi Calm Calm - N/A   Scattered Clouds
8:54 PM 44.6 °F 43.1 °F 35.6 °F 71% 29.81 in 10.0 mi ESE 3.5 mph - N/A   Scattered Clouds
9:14 PM 44.6 °F 43.1 °F 35.6 °F 71% 29.81 in 10.0 mi SE 3.5 mph - N/A   Scattered Clouds
9:34 PM 44.6 °F - 35.6 °F 71% 29.81 in 10.0 mi Calm Calm - N/A   Scattered Clouds
9:54 PM 44.6 °F - 35.6 °F 71% 29.81 in 10.0 mi Calm Calm - N/A   Mostly Cloudy
10:14 PM 46.4 °F - 37.4 °F 71% 29.81 in 10.0 mi Calm Calm - N/A   Overcast
10:34 PM 48.2 °F - 37.4 °F 66% 29.81 in 10.0 mi SE 4.6 mph - N/A   Overcast
10:54 PM 50.0 °F - 39.2 °F 66% 29.81 in 10.0 mi Calm Calm - N/A   Overcast
11:14 PM 50.0 °F - 41.0 °F 71% 29.81 in 10.0 mi SE 3.5 mph - N/A   Overcast
11:34 PM 50.0 °F - 41.0 °F 71% 29.80 in 10.0 mi SE 3.5 mph - N/A   Overcast
11:54 PM 50.0 °F - 42.8 °F 76% 29.80 in 10.0 mi SE 4.6 mph - N/A   Overcast